Zurück zum Katalog

QIANFAN-37

AktivKommunikationPO
NORAD 62238·PAYLOAD·🇨🇳 China

Gestartet Dec 5, 2024 von Taiyuan Satellite Launch Center

Loading…

Nächste Überflüge (nächste 24 Stunden)

TLE

AktuellSource: Space-Track

Epoche: Sep 14, 2026, 13:56 UTC

1 62238U 24232B   26257.58072613  .00000105  00000-0  14382-3 0  9995
2 62238  89.0153  13.6285 0002083  87.5043 272.6347 13.51029591136416

Verfolge QIANFAN-37 in Echtzeit mit AllMySat

Download on the App Store